Tracking 22458 objects as of 2-Mar-2021
HD Live streaming from Space Station
objects crossing your sky now

SL-8 DEB *

Track SL-8 DEB * now!
10-day predictions


NORAD ID: 14802
Int'l Code: 1977-059C
Perigee: 683.0 km
Apogee: 700.5 km
Inclination: 74.1 °
Period: 98.5 minutes
Semi major axis: 7062 km
RCS: 0.0066 m2 (small)
Launch date: July 1, 1977
Source: Commonwealth of Independent States (former USSR) (CIS)
Launch site: PLESETSK MISSILE AND SPACE COMPLEX (PKMTR)

Note: This is SATELLITE DEBRIS
aabbcc
Your satellite tracking list
Your tracking list is empty




NASA's NSSDC Master Catalog

Two Line Element Set (TLE):
1 14802U 77059C   21060.88014361  .00000341  00000-0  73029-4 0  9996
2 14802  74.0580 345.7630 0012452 242.5716 180.4970 14.62655737 83297
Source of the keplerian elements: AFSPC